User: anonymous   Login
Location: Unspecified
(0.0000°N, 0.0000°E)
Time: 19:28:44
(UTC+00:00)
Language:

STARLINK-30224 - Orbit

View from above orbital plane
View from above orbital plane
View from above satellite
View from above satellite

Ground track
Ground track

The orbit is defined by the following mean orbital elements,

1 57416U          26145.54604846 +.00000000 +00000-0 +30750-4 0 00000
2 57416  43.0021 174.5716 0001400 261.5172  98.5521 15.27580548    00
Epoch (UTC): 25 May 2026 13:06:18
Eccentricity: 0.0001400
inclination: 43.0021°
perigee height: 482 km
apogee height: 484 km
right ascension of ascending node: 174.5716°
argument of perigee: 261.5172°
revolutions per day: 15.27580548
mean anomaly at epoch: 98.5521°

The dashed part of the orbit path shows where the satellite is in the earth's shadow,  

DLR